Willimantic, CT

5:55 AM EDT on March 30, 2017 (GMT -0400)
Windham

Weather History for KIJD - December, 2012

Change the Weather History Date:

Tuesday, December 4, 2012

  Actual Average Record
Temperature  
Mean Temperature 44 °F -  
Max Temperature 59 °F 43 °F 69 °F (1998)
Min Temperature 28 °F 23 °F 3 °F (1976)
Degree Days  
Heating Degree Days 22    
Moisture  
Dew Point 40 °F    
Average Humidity 87    
Maximum Humidity 93    
Minimum Humidity 81    
Precipitation  
Precipitation 0.00 in - - ()
Sea Level Pressure  
Sea Level Pressure 30.22 in    
Wind  
Wind Speed 1 mph (South)    
Max Wind Speed 12 mph    
Max Gust Speed 18 mph    
Visibility 7 miles    
Events Rain    
Averages and records for this station are not official NWS values.
T = Trace of Precipitation, MM = Missing Value Source: NWS Daily Summary

Daily Weather History Graph

Daily Weather History Graph

Search for Another Location

Airport or City:

Trip Planner

Search our weather history database for the weather conditions in past years. The results will help you decide how hot, cold, wet, or windy it might be!

Date:

Astronomy

Dec. 04, 2012 Rise Set
Actual Time 6:59 AM EST 4:18 PM EST
Civil Twilight 6:28 AM EST 4:49 PM EST
Nautical Twilight 5:54 AM EST 5:24 PM EST
Astronomical Twilight 5:20 AM EST 5:57 PM EST
Moon 10:06 PM EST (12/4) 10:49 AM EST (12/4)
Length of Visible Light 10h 20m
Length of Day
9h 18m
Waning Gibbous, 69% of the Moon is Illuminated
Dec 4
Waning Gibbous
Dec 6
Last Quarter
Dec 13
New
Dec 20
First Quarter
Dec 28
Full

Hourly Weather History & Observations

Time (EST) Temp. Windchill Dew Point Humidity Pressure Visibility Wind Dir Wind Speed Gust Speed Precip Events Conditions
12:52 AM 30.9 °F - 28.0 °F 89% 30.30 in 7.0 mi Calm Calm - N/A   Clear
1:52 AM 30.0 °F - 26.1 °F 85% 30.30 in 8.0 mi Calm Calm - N/A   Clear
2:52 AM 30.9 °F - 27.0 °F 85% 30.30 in 7.0 mi Calm Calm - N/A   Clear
3:52 AM 30.0 °F - 27.0 °F 88% 30.31 in 6.0 mi Calm Calm - N/A   Clear
4:52 AM 28.9 °F - 25.0 °F 85% 30.30 in 7.0 mi Calm Calm - N/A   Clear
5:52 AM 30.9 °F - 28.0 °F 89% 30.32 in 7.0 mi Calm Calm - N/A   Mostly Cloudy
6:02 AM 32.0 °F 28.7 °F 28.4 °F 87% 30.31 in 8.0 mi ENE 3.5 mph - N/A   Mostly Cloudy
6:52 AM 33.1 °F - 28.9 °F 85% 30.33 in 9.0 mi Calm Calm - N/A   Overcast
7:52 AM 34.0 °F - 30.9 °F 89% 30.32 in 8.0 mi Calm Calm - N/A   Overcast
8:52 AM 36.0 °F - 32.0 °F 86% 30.33 in 7.0 mi Calm Calm - 0.00 in Rain Light Rain
9:40 AM 37.4 °F - 33.8 °F 87% 30.31 in 8.0 mi Calm Calm - N/A   Overcast
9:52 AM 37.0 °F - 34.0 °F 89% 30.32 in 8.0 mi Calm Calm - N/A   Overcast
10:23 AM 37.4 °F - 35.6 °F 93% 30.30 in 8.0 mi Calm Calm - N/A   Overcast
10:52 AM 39.0 °F - 35.1 °F 86% 30.30 in 7.0 mi Calm Calm - 0.00 in Rain Light Rain
11:05 AM 39.2 °F - 35.6 °F 87% 30.28 in 7.0 mi Calm Calm - 0.00 in Rain Light Rain
11:41 AM 41.0 °F - 37.4 °F 87% 30.26 in 5.0 mi Calm Calm - 0.00 in Rain Light Rain
11:52 AM 42.1 °F - 37.9 °F 85% 30.26 in 5.0 mi Calm Calm - 0.00 in Rain Light Rain
12:28 PM 42.8 °F - 39.2 °F 87% 30.24 in 5.0 mi Calm Calm - 0.00 in   Overcast
12:52 PM 43.0 °F - 39.9 °F 89% 30.24 in 5.0 mi Calm Calm - 0.00 in   Overcast
1:52 PM 45.0 °F - 42.1 °F 90% 30.21 in 4.0 mi Calm Calm - 0.00 in Rain Light Rain
2:52 PM 46.9 °F - 44.1 °F 90% 30.19 in 4.0 mi Calm Calm - 0.00 in   Overcast
3:14 PM 46.4 °F - 44.6 °F 93% 30.18 in 3.0 mi Calm Calm - N/A   Overcast
3:52 PM 48.9 °F - 46.0 °F 90% 30.18 in 3.0 mi Calm Calm - N/A   Overcast
4:32 PM 48.2 °F - 44.6 °F 87% 30.17 in 5.0 mi Calm Calm - N/A   Overcast
4:52 PM 50.0 °F - 45.0 °F 83% 30.17 in 5.0 mi South 4.6 mph - N/A   Haze
5:52 PM 55.9 °F - 52.0 °F 87% 30.15 in 5.0 mi SSE 4.6 mph - N/A   Overcast
6:52 PM 57.9 °F - 52.0 °F 81% 30.13 in 9.0 mi South 3.5 mph - N/A   Overcast
7:52 PM 57.9 °F - 53.1 °F 84% 30.11 in 9.0 mi South 9.2 mph - N/A   Overcast
8:52 PM 59.0 °F - 53.1 °F 81% 30.08 in 9.0 mi South 11.5 mph 17.3 mph N/A   Overcast
9:20 PM 59.0 °F - 53.6 °F 82% 30.06 in 9.0 mi South 10.4 mph 17.3 mph N/A   Overcast
9:52 PM 57.9 °F - 53.1 °F 84% 30.06 in 9.0 mi South 8.1 mph - N/A   Overcast
10:52 PM 57.9 °F - 53.1 °F 84% 30.03 in 8.0 mi South 10.4 mph 16.1 mph N/A   Overcast
11:47 PM 57.2 °F - 53.6 °F 88% 30.00 in 8.0 mi South 9.2 mph 18.4 mph N/A   Overcast
11:52 PM 57.9 °F - 53.1 °F 84% 30.00 in 8.0 mi South 9.2 mph 18.4 mph N/A   Overcast